User: anonymous   Login
Location: Unspecified
(0.0000°N, 0.0000°E)
Time: 23:28:42
(UTC+00:00)
Language:

DSP F16 - Orbit

View from above orbital plane
View from above orbital plane
View from above satellite
View from above satellite

Ground track
Ground track

The orbit data is extracted from the following two-line orbital elements,

1 21805U 91080B   17343.10344517 0.00000000  00000-0  00000-0 0    00
2 21805  15.1490  11.3035 0005672 331.9523  28.0292  0.99193363    03
Epoch (UTC): 09 December 2017 02:28:57
Eccentricity: 0.0005672
inclination: 15.1490°
perigee height: 36067 km
apogee height: 36115 km
right ascension of ascending node: 11.3035°
argument of perigee: 331.9523°
revolutions per day: 0.99193363
mean anomaly at epoch: 28.0292°
orbit number at epoch: 0

The dashed part of the orbit path shows where the satellite is in the earth's shadow,  

DLR